Location: Malvern Link
(52.1333°N, 2.3000°W)
Time: 15:46:34
(UTC+00:00)

SO-50 - Pass Details

Date: 07 July 2022
Orbit: 585 x 698 km, 64.6° (Epoch: 11 August)

Event Time Altitude Azimuth Distance (km) Brightness Sun altitude
Rises 01:04:07 0° 256° (WSW) 2,995 ? -14.5°
Reaches altitude 10° 01:06:36 10° 266° (W) 2,103 ? -14.4°
Maximum altitude 01:10:57 33° 331° (NNW) 1,146 ? -14.2°
Drops below altitude 10° 01:15:24 10° 36° (NE) 2,157 ? -14.1°
Sets 01:17:59 0° 46° (NE) 3,084 ? -14.0°
